Tracking 20941 objects as of 2-Jul-2020
HD Live streaming from Space Station
objects crossing your sky now

DELTA 1 DEB

Track DELTA 1 DEB now!
10-day predictions


NORAD ID: 42559
Int'l Code: 1972-058JS
Perigee: 532.8 km
Apogee: 542.3 km
Inclination: 98.2 °
Period: 95.2 minutes
Semi major axis: 6908 km
RCS: Unknown
Launch date: July 23, 1972
Source: United States (US)
Launch site: AIR FORCE WESTERN TEST RANGE (AFWTR)

Note: This is SATELLITE DEBRIS
aabbcc
Your satellite tracking list
Your tracking list is empty




NASA's NSSDC Master Catalog

Two Line Element Set (TLE):
1 42559U 72058JS  20184.53850194  .00008963  00000-0  52722-3 0  9994
2 42559  98.1964 281.6519 0006939 183.5972 176.5208 15.11899542303660
Source of the keplerian elements: AFSPC